Voltar ao catálogo

FENGYUN 1C DEB

AtivoPO
NORAD 29800·DEBRIS·🇨🇳 China

Lançado May 10, 1999 de Taiyuan Satellite Launch Center

Loading…

Próximas Passagens (próximas 24 horas)

TLE

AtualizadoSource: Space-Track

Época: Sep 12, 2026, 23:48 UTC

1 29800U 99025CS  26255.99195334  .00001638  00000-0  10592-2 0  9994
2 29800  98.2806 256.6279 0131133 173.8552 212.3617 13.99917633994122

Acompanhe FENGYUN 1C DEB em tempo real com AllMySat

Download on the App Store